This demonstration page uses our WeatherBlox Daily Observations layout. Learn more.

Left ArrowRight Arrow

Hourly Observations for March 4, 2018

Temp ( °F °C ) Dew Point ( °F °C ) Humidity (%) Winds ( mph kmh ) Pressure ( in mb ) Visibility ( mi km ) Precip ( " mm )
12:06 am 00:06 Partly Cloudy 41 5 38 3.3 89 89 Calm 30.09 1019 10 16 0.00 0.00
12:49 am 00:49 Mostly Cloudy 39 4 37 3 93 93 Calm 30.12 1020 10 16 0.00 0.00
12:53 am 00:53 Partly Cloudy 39 3.9 37 2.8 93 93 SE 3 6 30.11 1020 10 16 0.00 0.00
1:25 am 01:25 Mostly Cloudy 38 3.3 37 2.8 97 97 Calm 30.12 1020 10 16 0.00 0.00
1:53 am 01:53 Cloudy 38 3.3 36 2.2 93 93 Calm 30.13 1020 10 16 0.00 0.00
2:53 am 02:53 Cloudy 39 3.9 38 3.3 96 96 Calm 30.14 1021 10 16 0.00 0.00
3:53 am 03:53 Cloudy 38 3.3 37 2.8 97 97 SW 5 7 30.16 1021 10 16 0.00 0.00
4:53 am 04:53 Cloudy 39 3.9 38 3.3 96 96 SSW 3 6 30.18 1022 10 16 0.00 0.00
5:32 am 05:32 Cloudy 41 5 37 2.8 86 86 SSW 7 11 30.18 1022 10 16 0.00 0.00
5:53 am 05:53 Mostly Cloudy 40 4.4 36 2.2 86 86 undefined N/A 30.20 1023 10 16 0.00 0.00
6:53 am 06:53 Cloudy 38 3.3 37 2.8 97 97 Calm 30.23 1024 10 16 0.00 0.00
7:53 am 07:53 Cloudy 39 3.9 38 3.3 96 96 Calm 30.27 1025 10 16 0.00 0.00
8:53 am 08:53 Cloudy 42 5.6 38 3.3 85 85 Calm 30.30 1026 10 16 0.00 0.00
9:53 am 09:53 Mostly Cloudy 44 6.7 37 2.8 76 76 SSW 6 9 30.31 1027 10 16 0.00 0.00
10:53 am 10:53 Cloudy 46 7.8 36 2.2 68 68 S 7 11 30.33 1027 10 16 0.00 0.00
11:53 am 11:53 Cloudy 47 8.3 34 1.1 61 61 SE 5 7 30.35 1028 10 16 0.00 0.00
12:53 pm 12:53 Cloudy 50 10 34 1.1 54 54 Calm 30.34 1027 10 16 0.00 0.00
1:53 pm 13:53 Cloudy 50 10 33 0.6 52 52 ENE 5 7 30.33 1027 10 16 0.00 0.00
2:53 pm 14:53 Sunny 51 10.6 33 0.6 50 50 E 6 9 30.32 1027 10 16 0.00 0.00
3:53 pm 15:53 Mostly Sunny 52 11.1 31 -0.6 45 45 SSW 3 6 30.32 1027 10 16 0.00 0.00
4:53 pm 16:53 Sunny 53 11.7 31 -0.6 43 43 SSE 3 6 30.31 1027 10 16 0.00 0.00
5:53 pm 17:53 Sunny 48 8.9 33 0.6 56 56 Calm 30.31 1026 10 16 0.00 0.00
6:53 pm 18:53 Clear 42 5.6 33 0.6 71 71 NW 5 7 30.32 1027 10 16 0.00 0.00
7:53 pm 19:53 Clear 41 5 33 0.6 73 73 NW 5 7 30.34 1027 10 16 0.00 0.00
8:53 pm 20:53 Clear 41 5 34 1.1 76 76 N 3 6 30.36 1028 10 16 0.00 0.00
9:53 pm 21:53 Clear 39 3.9 35 1.7 86 86 NNW 5 7 30.36 1028 10 16 0.00 0.00
10:53 pm 22:53 Clear 39 3.9 35 1.7 86 86 N 5 7 30.35 1028 10 16 0.00 0.00
11:53 pm 23:53 Clear 37 2.8 34 1.1 89 89 N 3 6 30.35 1028 10 16 0.00 0.00

Powered by AerisWeather